Location: Grassland Mountain Observatory
(35.7543°N, 82.8038°W)
Time: 17:34:33
(UTC-05:00)

X-37B - Pass Details

Date: 07 December 2021
Orbit: 331 x 339 km, 45.0° (Epoch: 27 January)

Event Time Altitude Azimuth Distance (km) Brightness Sun altitude
Rises 18:16:31 0° 250° (WSW) 2,088 6.5 -11.8°
Reaches altitude 10° 18:18:33 10° 256° (WSW) 1,253 4.7 -12.2°
Maximum altitude 18:21:17 48° 333° (NNW) 438 0.9 -12.7°
Enters shadow 18:22:43 23° 39° (NE) 758 1.6 -13.0°
